| time (UTC) | temp C | wind direction | speed KPH | gust KPH | rain 1hr cm | rain 24hr cm | rain mn cm | humidity % | barometer mb |
| 20260507093508 | 7 | 29 | 0.0 | 1.6 | 0.00 | 0.00 | 0.00 | 78 | 1010.4 |
| 20260507093007 | 7 | 30 | 1.6 | 3.2 | 0.00 | 0.00 | 0.00 | 78 | 1010.5 |
| 20260507092503 | 7 | 29 | 0.0 | 0.0 | 0.00 | 0.00 | 0.00 | 77 | 1010.6 |
| 20260507092000 | 7 | 29 | 1.6 | 1.6 | 0.00 | 0.00 | 0.00 | 77 | 1010.6 |
| 20260507091456 | 7 | 29 | 1.6 | 1.6 | 0.00 | 0.00 | 0.00 | 76 | 1010.5 |
| 20260507090952 | 7 | 26 | 0.0 | 1.6 | 0.00 | 0.00 | 0.00 | 75 | 1010.4 |
| 20260507090448 | 7 | 26 | 0.0 | 1.6 | 0.00 | 0.00 | 0.00 | 75 | 1010.4 |
| 20260507085945 | 8 | 26 | 1.6 | 1.6 | 0.00 | 0.00 | 0.00 | 75 | 1010.7 |
| 20260507085442 | 8 | 26 | 1.6 | 1.6 | 0.00 | 0.00 | 0.00 | 75 | 1011.0 |
| 20260507084939 | 8 | 25 | 1.6 | 3.2 | 0.00 | 0.00 | 0.00 | 75 | 1010.8 |
| 20260507084436 | 7 | 25 | 1.6 | 3.2 | 0.00 | 0.00 | 0.00 | 74 | 1011.0 |
| 20260507083933 | 7 | 25 | 1.6 | 1.6 | 0.00 | 0.00 | 0.00 | 74 | 1011.0 |
| 20260507083429 | 8 | 25 | 1.6 | 3.2 | 0.00 | 0.00 | 0.00 | 73 | 1011.0 |
| 20260507082925 | 8 | 25 | 1.6 | 1.6 | 0.00 | 0.00 | 0.00 | 73 | 1011.2 |
| 20260507082421 | 8 | 24 | 1.6 | 3.2 | 0.00 | 0.00 | 0.00 | 72 | 1011.1 |
| 20260507081918 | 8 | 24 | 1.6 | 3.2 | 0.00 | 0.00 | 0.00 | 71 | 1011.3 |
| 20260507081414 | 8 | 24 | 1.6 | 3.2 | 0.00 | 0.00 | 0.00 | 71 | 1011.3 |
| 20260507080911 | 8 | 24 | 1.6 | 3.2 | 0.00 | 0.00 | 0.00 | 71 | 1011.4 |
| 20260507080408 | 7 | 24 | 1.6 | 1.6 | 0.00 | 0.00 | 0.00 | 71 | 1011.2 |
| 20260507075903 | 7 | 24 | 1.6 | 1.6 | 0.00 | 0.00 | 0.00 | 71 | 1011.1 |
| 20260507075359 | -17 | 0.0 | 0.0 | 0.00 | 0.00 | 0.00 | 1011.8 | ||
| 20260507074856 | 8 | 24 | 3.2 | 3.2 | 0.00 | 0.00 | 0.00 | 68 | 1011.5 |
| 20260507074353 | 8 | 24 | 3.2 | 3.2 | 0.00 | 0.00 | 0.00 | 68 | 1011.6 |
| 20260507073850 | 8 | 24 | 3.2 | 3.2 | 0.00 | 0.00 | 0.00 | 68 | 1011.5 |
| 20260507073347 | -17 | 0.0 | 0.0 | 0.00 | 0.00 | 0.00 | 1011.8 | ||
| 20260507072844 | 7 | 24 | 0.0 | 0.0 | 0.00 | 0.00 | 0.00 | 65 | 1011.5 |
| 20260507072341 | 7 | 24 | 0.0 | 0.0 | 0.00 | 0.00 | 0.00 | 65 | 1011.7 |
| 20260507071839 | 7 | 24 | 0.0 | 0.0 | 0.00 | 0.00 | 0.00 | 65 | 1012.1 |
| 20260507071336 | 8 | 24 | 1.6 | 1.6 | 0.00 | 0.00 | 0.00 | 65 | 1012.0 |
| 20260507070832 | 8 | 24 | 1.6 | 3.2 | 0.00 | 0.00 | 0.00 | 64 | 1012.0 |
| 20260507070329 | 8 | 23 | 1.6 | 3.2 | 0.00 | 0.00 | 0.00 | 63 | 1012.1 |
| 20260507065826 | 7 | 24 | 1.6 | 3.2 | 0.00 | 0.00 | 0.00 | 63 | 1012.1 |
| 20260507065323 | 7 | 24 | 0.0 | 1.6 | 0.00 | 0.00 | 0.00 | 64 | 1012.5 |
| 20260507064820 | 7 | 24 | 1.6 | 1.6 | 0.00 | 0.00 | 0.00 | 64 | 1012.3 |
| 20260507064318 | 7 | 24 | 0.0 | 0.0 | 0.00 | 0.00 | 0.00 | 62 | 1012.4 |
| 20260507063816 | 7 | 24 | 0.0 | 0.0 | 0.00 | 0.00 | 0.00 | 62 | 1012.5 |
| 20260507063313 | 7 | 24 | 1.6 | 1.6 | 0.00 | 0.00 | 0.00 | 61 | 1012.3 |
| 20260507062809 | -17 | 0.0 | 0.0 | 0.00 | 0.00 | 0.00 | 1012.3 | ||
| 20260507062306 | 6 | 24 | 0.0 | 1.6 | 0.00 | 0.00 | 0.00 | 59 | 1012.6 |
| 20260507061804 | 6 | 24 | 0.0 | 1.6 | 0.00 | 0.00 | 0.00 | 59 | 1012.6 |
| 20260507061302 | 6 | 24 | 0.0 | 1.6 | 0.00 | 0.00 | 0.00 | 59 | 1012.5 |
| 20260507060800 | 6 | 24 | 0.0 | 0.0 | 0.00 | 0.00 | 0.00 | 59 | 1012.7 |
| 20260507060256 | 6 | 24 | 0.0 | 0.0 | 0.00 | 0.00 | 0.00 | 59 | 1012.7 |
| 20260507055753 | 6 | 24 | 0.0 | 0.0 | 0.00 | 0.00 | 0.00 | 58 | 1012.7 |
| 20260507055248 | 6 | 24 | 0.0 | 1.6 | 0.00 | 0.00 | 0.00 | 58 | 1012.8 |
| 20260507054745 | 6 | 24 | 0.0 | 1.6 | 0.00 | 0.00 | 0.00 | 60 | 1012.6 |
| 20260507054242 | 6 | 24 | 0.0 | 1.6 | 0.00 | 0.00 | 0.00 | 60 | 1013.0 |
| 20260507053739 | -17 | 0.0 | 0.0 | 0.00 | 0.00 | 0.00 | 1012.7 | ||
| 20260507053236 | -17 | 0.0 | 0.0 | 0.00 | 0.00 | 0.00 | 1012.8 | ||
| 20260507052735 | -17 | 0.0 | 0.0 | 0.00 | 0.00 | 0.00 | 1012.7 | ||
| 20260507052231 | -17 | 0.0 | 0.0 | 0.00 | 0.00 | 0.00 | 1012.7 | ||
| 20260507051730 | -17 | 0.0 | 0.0 | 0.00 | 0.00 | 0.00 | 1012.7 | ||
| 20260507051226 | -17 | 0.0 | 0.0 | 0.00 | 0.00 | 0.00 | 1013.0 | ||
| 20260507050722 | -17 | 0.0 | 0.0 | 0.00 | 0.00 | 0.00 | 1012.9 | ||
| 20260507050220 | -17 | 0.0 | 0.0 | 0.00 | 0.00 | 0.00 | 1012.7 | ||
| 20260507045716 | -17 | 0.0 | 0.0 | 0.00 | 0.00 | 0.00 | 1012.9 | ||
| 20260507045212 | -17 | 0.0 | 0.0 | 0.00 | 0.00 | 0.00 | 1012.7 | ||
| 20260507044710 | -17 | 0.0 | 0.0 | 0.00 | 0.00 | 0.00 | 1012.7 | ||
| 20260507044206 | -17 | 0.0 | 0.0 | 0.00 | 0.00 | 0.00 | 1012.9 | ||
| 20260507043703 | -17 | 0.0 | 0.0 | 0.00 | 0.00 | 0.00 | 1012.8 | ||
| 20260507043200 | -17 | 0.0 | 0.0 | 0.00 | 0.00 | 0.00 | 1013.0 | ||
| 20260507042656 | -17 | 0.0 | 0.0 | 0.00 | 0.00 | 0.00 | 1013.1 | ||
| 20260507042151 | -17 | 0.0 | 0.0 | 0.00 | 0.00 | 0.00 | 1012.8 | ||
| 20260507041648 | -17 | 0.0 | 0.0 | 0.00 | 0.00 | 0.00 | 1012.9 | ||
| 20260507041144 | -17 | 0.0 | 0.0 | 0.00 | 0.00 | 0.00 | 1013.1 | ||
| 20260507040642 | -17 | 0.0 | 0.0 | 0.00 | 0.00 | 0.00 | 1012.8 | ||
| 20260507040138 | -17 | 0.0 | 0.0 | 0.00 | 0.00 | 0.00 | 1013.1 | ||
| 20260507035634 | -17 | 0.0 | 0.0 | 0.00 | 0.00 | 0.00 | 1013.2 | ||
| 20260507035130 | -17 | 0.0 | 0.0 | 0.00 | 0.00 | 0.00 | 1013.2 | ||
| 20260507034627 | -17 | 0.0 | 0.0 | 0.00 | 0.00 | 0.00 | 1013.3 | ||
| 20260507034125 | -17 | 0.0 | 0.0 | 0.00 | 0.00 | 0.00 | 1013.2 | ||
| 20260507033623 | -17 | 0.0 | 0.0 | 0.00 | 0.00 | 0.00 | 1013.4 | ||
| 20260507033120 | -17 | 0.0 | 0.0 | 0.00 | 0.00 | 0.00 | 1013.3 | ||
| 20260507032617 | 6 | 24 | 0.0 | 0.0 | 0.00 | 0.00 | 0.00 | 57 | 1013.3 |
| 20260507032113 | 6 | 24 | 0.0 | 0.0 | 0.00 | 0.00 | 0.00 | 57 | 1013.2 |
| 20260507031610 | 6 | 24 | 0.0 | 0.0 | 0.00 | 0.00 | 0.00 | 57 | 1013.5 |
| 20260507031106 | 6 | 24 | 0.0 | 0.0 | 0.00 | 0.00 | 0.00 | 54 | 1013.2 |
| 20260507030603 | -17 | 0.0 | 0.0 | 0.00 | 0.00 | 0.00 | 1013.2 | ||
| 20260507030101 | 7 | 24 | 0.0 | 0.0 | 0.00 | 0.00 | 0.00 | 51 | 1013.4 |
| 20260507025558 | 7 | 24 | 0.0 | 0.0 | 0.00 | 0.00 | 0.00 | 51 | 1013.4 |
| 20260507025055 | 7 | 24 | 0.0 | 0.0 | 0.00 | 0.00 | 0.00 | 51 | 1013.4 |
| 20260507024553 | 8 | 24 | 0.0 | 0.0 | 0.00 | 0.00 | 0.00 | 53 | 1013.3 |
| 20260507024050 | 8 | 24 | 0.0 | 0.0 | 0.00 | 0.00 | 0.00 | 53 | 1013.0 |
| 20260507023545 | 8 | 24 | 0.0 | 0.0 | 0.00 | 0.00 | 0.00 | 54 | 1013.2 |
| 20260507023043 | 8 | 24 | 0.0 | 0.0 | 0.00 | 0.00 | 0.00 | 54 | 1013.3 |
| 20260507022540 | -17 | 0.0 | 0.0 | 0.00 | 0.00 | 0.00 | 1013.1 | ||
| 20260507022035 | -17 | 0.0 | 0.0 | 0.00 | 0.00 | 0.00 | 1012.9 | ||
| 20260507021531 | -17 | 0.0 | 0.0 | 0.00 | 0.00 | 0.00 | 1012.9 | ||
| 20260507021028 | -17 | 0.0 | 0.0 | 0.00 | 0.00 | 0.00 | 1013.1 | ||
| 20260507020525 | -17 | 0.0 | 0.0 | 0.00 | 0.00 | 0.00 | 1013.0 | ||
| 20260507020022 | -17 | 0.0 | 0.0 | 0.00 | 0.00 | 0.00 | 1013.1 | ||
| 20260507015520 | -17 | 0.0 | 0.0 | 0.00 | 0.00 | 0.00 | 1013.2 | ||
| 20260507015018 | -17 | 0.0 | 0.0 | 0.00 | 0.00 | 0.00 | 1013.0 | ||
| 20260507014514 | -17 | 0.0 | 0.0 | 0.00 | 0.00 | 0.00 | 1012.9 | ||
| 20260507014010 | -17 | 0.0 | 0.0 | 0.00 | 0.00 | 0.00 | 1013.0 | ||
| 20260507013506 | -17 | 0.0 | 0.0 | 0.00 | 0.00 | 0.00 | 1013.0 | ||
| 20260507013004 | 12 | 24 | 0.0 | 0.0 | 0.00 | 0.00 | 0.00 | 38 | 1013.0 |
| 20260507012501 | 12 | 24 | 0.0 | 0.0 | 0.00 | 0.00 | 0.00 | 38 | 1013.0 |
| 20260507011957 | 12 | 24 | 0.0 | 0.0 | 0.00 | 0.00 | 0.00 | 38 | 1013.4 |
| 20260507011454 | 12 | 23 | 0.0 | 0.0 | 0.00 | 0.00 | 0.00 | 37 | 1012.9 |
| 20260507010950 | 12 | 23 | 0.0 | 0.0 | 0.00 | 0.00 | 0.00 | 37 | 1012.9 |
| 20260507010445 | 13 | 23 | 0.0 | 0.0 | 0.00 | 0.00 | 0.00 | 32 | 1013.1 |
| 20260507005942 | 13 | 23 | 0.0 | 0.0 | 0.00 | 0.00 | 0.00 | 31 | 1013.3 |
| 20260507005439 | 13 | 23 | 0.0 | 0.0 | 0.00 | 0.00 | 0.00 | 31 | 1013.1 |
| 20260507004935 | 13 | 23 | 0.0 | 1.6 | 0.00 | 0.00 | 0.00 | 30 | 1013.0 |
| 20260507004432 | 13 | 22 | 0.0 | 1.6 | 0.00 | 0.00 | 0.00 | 29 | 1013.0 |
| 20260507003930 | 14 | 23 | 0.0 | 0.0 | 0.00 | 0.00 | 0.00 | 28 | 1013.2 |
| 20260507003425 | 14 | 22 | 1.6 | 1.6 | 0.00 | 0.00 | 0.00 | 30 | 1013.1 |
| 20260507002920 | 14 | 23 | 0.0 | 0.0 | 0.00 | 0.00 | 0.00 | 30 | 1013.1 |
| 20260507002417 | 14 | 23 | 1.6 | 1.6 | 0.00 | 0.00 | 0.00 | 31 | 1013.3 |
| 20260507001914 | 15 | 23 | 0.0 | 1.6 | 0.00 | 0.00 | 0.00 | 28 | 1013.1 |
| 20260507001410 | 15 | 11 | 0.0 | 1.6 | 0.00 | 0.00 | 0.00 | 28 | 1013.0 |
| 20260507000908 | 15 | 17 | 0.0 | 0.0 | 0.00 | 0.00 | 0.00 | 28 | 1013.2 |
| 20260507000405 | 15 | 22 | 0.0 | 0.0 | 0.00 | 0.00 | 0.00 | 28 | 1013.3 |
| 20260506235859 | 15 | 22 | 0.0 | 0.0 | 0.00 | 0.00 | 0.00 | 30 | 1013.2 |
| 20260506235357 | 15 | 22 | 0.0 | 0.0 | 0.00 | 0.00 | 0.00 | 32 | 1013.2 |
| 20260506234852 | 15 | 23 | 0.0 | 0.0 | 0.00 | 0.00 | 0.00 | 27 | 1013.3 |
| 20260506234350 | 15 | 8 | 0.0 | 0.0 | 0.00 | 0.00 | 0.00 | 27 | 1013.4 |
| 20260506233848 | 15 | 9 | 0.0 | 1.6 | 0.00 | 0.00 | 0.00 | 28 | 1013.6 |
| 20260506233343 | 15 | 5 | 0.0 | 1.6 | 0.00 | 0.00 | 0.00 | 28 | 1013.7 |
| 20260506232840 | 14 | 8 | 1.6 | 1.6 | 0.00 | 0.00 | 0.00 | 29 | 1013.7 |
| 20260506232336 | 14 | 8 | 0.0 | 0.0 | 0.00 | 0.00 | 0.00 | 30 | 1013.6 |
| 20260506231833 | 14 | 0 | 0.0 | 0.0 | 0.00 | 0.00 | 0.00 | 29 | 1013.5 |
| 20260506231331 | 15 | 347 | 1.6 | 3.2 | 0.00 | 0.00 | 0.00 | 28 | 1013.7 |
| 20260506230828 | 15 | 16 | 1.6 | 1.6 | 0.00 | 0.00 | 0.00 | 27 | 1013.9 |
| 20260506230325 | 14 | 2 | 0.0 | 0.0 | 0.00 | 0.00 | 0.00 | 31 | 1013.8 |
| 20260506225820 | 15 | 324 | 1.6 | 1.6 | 0.00 | 0.00 | 0.00 | 29 | 1013.9 |
| 20260506225318 | 15 | 322 | 8.0 | 11.3 | 0.00 | 0.00 | 0.00 | 27 | 1013.7 |
| 20260506224815 | 15 | 28 | 0.0 | 1.6 | 0.00 | 0.00 | 0.00 | 28 | 1013.7 |
| 20260506224312 | 15 | 312 | 4.8 | 8.0 | 0.00 | 0.00 | 0.00 | 27 | 1013.9 |
| 20260506223808 | 15 | 1 | 0.0 | 1.6 | 0.00 | 0.00 | 0.00 | 29 | 1013.7 |
| 20260506223303 | 15 | 336 | 3.2 | 3.2 | 0.00 | 0.00 | 0.00 | 28 | 1013.8 |
| 20260506222800 | 15 | 17 | 0.0 | 0.0 | 0.00 | 0.00 | 0.00 | 27 | 1014.0 |
| 20260506222255 | 15 | 315 | 1.6 | 1.6 | 0.00 | 0.00 | 0.00 | 28 | 1014.0 |
| 20260506221749 | 15 | 357 | 1.6 | 1.6 | 0.00 | 0.00 | 0.00 | 28 | 1014.0 |
| 20260506221246 | 15 | 333 | 4.8 | 4.8 | 0.00 | 0.00 | 0.00 | 27 | 1014.0 |
| 20260506220744 | 15 | 12 | 1.6 | 3.2 | 0.00 | 0.00 | 0.00 | 29 | 1014.2 |
| 20260506220238 | 15 | 333 | 4.8 | 4.8 | 0.00 | 0.00 | 0.00 | 27 | 1014.1 |
| 20260506215735 | 15 | 293 | 4.8 | 4.8 | 0.00 | 0.00 | 0.00 | 28 | 1014.1 |
| 20260506215230 | 15 | 300 | 0.0 | 0.0 | 0.00 | 0.00 | 0.00 | 31 | 1014.3 |
| 20260506214727 | 15 | 30 | 0.0 | 1.6 | 0.00 | 0.00 | 0.00 | 30 | 1014.2 |
| 20260506214225 | 15 | 27 | 0.0 | 1.6 | 0.00 | 0.00 | 0.00 | 28 | 1014.4 |
| 20260506213723 | 15 | 11 | 3.2 | 4.8 | 0.00 | 0.00 | 0.00 | 29 | 1014.1 |
| 20260506213220 | 15 | 12 | 0.0 | 1.6 | 0.00 | 0.00 | 0.00 | 29 | 1014.3 |
| 20260506212717 | 15 | 296 | 1.6 | 3.2 | 0.00 | 0.00 | 0.00 | 28 | 1014.2 |
| 20260506212212 | 15 | 359 | 1.6 | 3.2 | 0.00 | 0.00 | 0.00 | 28 | 1014.3 |
| 20260506211708 | 15 | 341 | 3.2 | 3.2 | 0.00 | 0.00 | 0.00 | 31 | 1014.5 |
| 20260506211204 | 15 | 343 | 1.6 | 3.2 | 0.00 | 0.00 | 0.00 | 31 | 1014.7 |
| 20260506210701 | 15 | 340 | 1.6 | 1.6 | 0.00 | 0.00 | 0.00 | 31 | 1014.8 |
| 20260506210158 | 16 | 311 | 3.2 | 3.2 | 0.00 | 0.00 | 0.00 | 29 | 1014.7 |
| 20260506205655 | 15 | 341 | 4.8 | 4.8 | 0.00 | 0.00 | 0.00 | 28 | 1014.7 |
| 20260506205150 | 15 | 323 | 4.8 | 4.8 | 0.00 | 0.00 | 0.00 | 29 | 1014.8 |
| 20260506204648 | 15 | 337 | 4.8 | 4.8 | 0.00 | 0.00 | 0.00 | 31 | 1014.8 |
| 20260506204145 | 15 | 337 | 4.8 | 4.8 | 0.00 | 0.00 | 0.00 | 31 | 1015.4 |
| 20260506203643 | 15 | 330 | 1.6 | 1.6 | 0.00 | 0.00 | 0.00 | 33 | 1015.0 |
| 20260506203139 | 16 | 335 | 1.6 | 3.2 | 0.00 | 0.00 | 0.00 | 31 | 1015.1 |
| 20260506202638 | 16 | 336 | 4.8 | 8.0 | 0.00 | 0.00 | 0.00 | 29 | 1015.1 |
| 20260506202133 | 15 | 332 | 3.2 | 4.8 | 0.00 | 0.00 | 0.00 | 30 | 1015.2 |
| 20260506201631 | 15 | 333 | 1.6 | 1.6 | 0.00 | 0.00 | 0.00 | 28 | 1015.1 |
| 20260506201127 | 15 | 346 | 3.2 | 3.2 | 0.00 | 0.00 | 0.00 | 30 | 1015.5 |
| 20260506200624 | 15 | 1 | 0.0 | 1.6 | 0.00 | 0.00 | 0.00 | 29 | 1015.4 |
| 20260506200120 | 15 | 307 | 1.6 | 1.6 | 0.00 | 0.00 | 0.00 | 33 | 1015.5 |
| 20260506195617 | 15 | 329 | 1.6 | 3.2 | 0.00 | 0.00 | 0.00 | 32 | 1015.7 |
| 20260506195113 | 15 | 343 | 0.0 | 1.6 | 0.00 | 0.00 | 0.00 | 33 | 1015.7 |
| 20260506194611 | 15 | 2 | 1.6 | 1.6 | 0.00 | 0.00 | 0.00 | 31 | 1015.6 |
| 20260506194107 | 15 | 341 | 4.8 | 4.8 | 0.00 | 0.00 | 0.00 | 31 | 1015.7 |
| 20260506193605 | 15 | 311 | 3.2 | 4.8 | 0.00 | 0.00 | 0.00 | 32 | 1015.9 |
| 20260506193102 | 16 | 50 | 0.0 | 1.6 | 0.00 | 0.00 | 0.00 | 33 | 1015.8 |
| 20260506192559 | 15 | 331 | 1.6 | 3.2 | 0.00 | 0.00 | 0.00 | 30 | 1015.7 |
| 20260506192055 | 15 | 0 | 1.6 | 1.6 | 0.00 | 0.00 | 0.00 | 31 | 1015.8 |
| 20260506191551 | 15 | 358 | 1.6 | 1.6 | 0.00 | 0.00 | 0.00 | 31 | 1015.6 |
| 20260506191047 | 15 | 39 | 1.6 | 3.2 | 0.00 | 0.00 | 0.00 | 34 | 1015.7 |
| 20260506190545 | 14 | 1 | 3.2 | 3.2 | 0.00 | 0.00 | 0.00 | 31 | 1015.5 |
| 20260506190042 | 14 | 39 | 1.6 | 1.6 | 0.00 | 0.00 | 0.00 | 31 | 1015.7 |
| 20260506185539 | 14 | 338 | 1.6 | 1.6 | 0.00 | 0.00 | 0.00 | 31 | 1015.8 |
| 20260506185035 | 13 | 328 | 4.8 | 8.0 | 0.00 | 0.00 | 0.00 | 34 | 1016.1 |
| 20260506184533 | 14 | 341 | 0.0 | 0.0 | 0.00 | 0.00 | 0.00 | 30 | 1016.0 |
| 20260506184030 | 15 | 23 | 0.0 | 1.6 | 0.00 | 0.00 | 0.00 | 37 | 1015.9 |
| 20260506183526 | 13 | 333 | 1.6 | 3.2 | 0.00 | 0.00 | 0.00 | 33 | 1016.1 |
| 20260506183023 | 14 | 311 | 1.6 | 3.2 | 0.00 | 0.00 | 0.00 | 31 | 1016.1 |
| 20260506182520 | 13 | 15 | 0.0 | 0.0 | 0.00 | 0.00 | 0.00 | 31 | 1016.2 |
| 20260506182017 | 13 | 0 | 1.6 | 1.6 | 0.00 | 0.00 | 0.00 | 33 | 1016.2 |
| 20260506181515 | 13 | 36 | 1.6 | 4.8 | 0.00 | 0.00 | 0.00 | 31 | 1016.1 |
| 20260506181012 | 13 | 351 | 3.2 | 3.2 | 0.00 | 0.00 | 0.00 | 32 | 1016.6 |
| 20260506180508 | 13 | 0 | 1.6 | 3.2 | 0.00 | 0.00 | 0.00 | 32 | 1016.2 |
| 20260506180006 | 13 | 20 | 0.0 | 1.6 | 0.00 | 0.00 | 0.00 | 32 | 1016.3 |
| 20260506175501 | 13 | 356 | 1.6 | 1.6 | 0.00 | 0.00 | 0.00 | 34 | 1016.8 |
| 20260506174958 | 14 | 298 | 4.8 | 9.7 | 0.00 | 0.00 | 0.00 | 33 | 1016.7 |
| 20260506174456 | 13 | 304 | 6.4 | 8.0 | 0.00 | 0.00 | 0.00 | 32 | 1016.7 |
| 20260506173952 | 13 | 332 | 3.2 | 4.8 | 0.00 | 0.00 | 0.00 | 35 | 1016.8 |
| 20260506173450 | 13 | 318 | 6.4 | 9.7 | 0.00 | 0.00 | 0.00 | 36 | 1016.7 |
| 20260506172946 | 13 | 32 | 1.6 | 1.6 | 0.00 | 0.00 | 0.00 | 34 | 1016.6 |
| 20260506172444 | 13 | 10 | 3.2 | 4.8 | 0.00 | 0.00 | 0.00 | 32 | 1016.8 |
| 20260506171940 | 13 | 345 | 0.0 | 0.0 | 0.00 | 0.00 | 0.00 | 37 | 1016.8 |
| 20260506171438 | 12 | 345 | 1.6 | 3.2 | 0.00 | 0.00 | 0.00 | 36 | 1016.8 |
| 20260506170935 | 12 | 336 | 6.4 | 9.7 | 0.00 | 0.00 | 0.00 | 37 | 1016.9 |
| 20260506170431 | 12 | 33 | 1.6 | 4.8 | 0.00 | 0.00 | 0.00 | 34 | 1017.0 |
| 20260506165924 | 12 | 331 | 3.2 | 4.8 | 0.00 | 0.00 | 0.00 | 33 | 1017.2 |
| 20260506165422 | 12 | 348 | 0.0 | 1.6 | 0.00 | 0.00 | 0.00 | 37 | 1016.8 |
| 20260506164913 | 12 | 312 | 8.0 | 14.5 | 0.00 | 0.00 | 0.00 | 35 | 1017.1 |
| 20260506164409 | 12 | 305 | 3.2 | 4.8 | 0.00 | 0.00 | 0.00 | 38 | 1017.2 |
| 20260506163907 | 12 | 352 | 3.2 | 3.2 | 0.00 | 0.00 | 0.00 | 36 | 1017.3 |
| 20260506163402 | 11 | 347 | 1.6 | 1.6 | 0.00 | 0.00 | 0.00 | 38 | 1017.1 |
| 20260506162857 | 11 | 331 | 3.2 | 3.2 | 0.00 | 0.00 | 0.00 | 36 | 1017.4 |
| 20260506162355 | 11 | 348 | 0.0 | 1.6 | 0.00 | 0.00 | 0.00 | 40 | 1017.2 |
| 20260506161852 | 11 | 350 | 6.4 | 8.0 | 0.00 | 0.00 | 0.00 | 38 | 1017.4 |
| 20260506161349 | 11 | 343 | 1.6 | 1.6 | 0.00 | 0.00 | 0.00 | 39 | 1017.2 |
| 20260506160842 | 11 | 327 | 1.6 | 8.0 | 0.00 | 0.00 | 0.00 | 41 | 1017.2 |
| 20260506160338 | 11 | 336 | 4.8 | 9.7 | 0.00 | 0.00 | 0.00 | 38 | 1016.9 |
| 20260506155837 | 10 | 337 | 3.2 | 3.2 | 0.00 | 0.00 | 0.00 | 38 | 1017.3 |
| 20260506155333 | 11 | 321 | 1.6 | 1.6 | 0.00 | 0.00 | 0.00 | 38 | 1016.9 |
| 20260506153445 | 10 | 335 | 0.0 | 1.6 | 0.00 | 0.00 | 0.00 | 43 | 1017.3 |
| 20260506152942 | 11 | 335 | 1.6 | 1.6 | 0.00 | 0.00 | 0.00 | 42 | 1017.1 |
| 20260506152439 | 10 | 335 | 1.6 | 1.6 | 0.00 | 0.00 | 0.00 | 41 | 1017.2 |
| 20260506151938 | 10 | 335 | 1.6 | 3.2 | 0.00 | 0.00 | 0.00 | 42 | 1017.1 |
| 20260506151435 | 10 | 336 | 0.0 | 0.0 | 0.00 | 0.00 | 0.00 | 43 | 1017.1 |
| 20260506150932 | 10 | 292 | 0.0 | 1.6 | 0.00 | 0.00 | 0.00 | 41 | 1017.1 |
| 20260506150428 | 10 | 319 | 0.0 | 0.0 | 0.00 | 0.00 | 0.00 | 40 | 1016.8 |
| 20260506145925 | 10 | 323 | 4.8 | 4.8 | 0.00 | 0.00 | 0.00 | 40 | 1017.0 |
| 20260506145421 | 10 | 334 | 1.6 | 1.6 | 0.00 | 0.00 | 0.00 | 45 | 1017.0 |
| 20260506144919 | 9 | 335 | 3.2 | 3.2 | 0.00 | 0.00 | 0.00 | 43 | 1017.0 |
| 20260506144415 | 9 | 335 | 0.0 | 0.0 | 0.00 | 0.00 | 0.00 | 42 | 1017.2 |
| 20260506143914 | 9 | 335 | 0.0 | 0.0 | 0.00 | 0.00 | 0.00 | 42 | 1017.1 |
| 20260506143410 | 9 | 335 | 0.0 | 0.0 | 0.00 | 0.00 | 0.00 | 43 | 1017.1 |
| 20260506142909 | 9 | 334 | 0.0 | 0.0 | 0.00 | 0.00 | 0.00 | 43 | 1016.9 |
| 20260506142407 | 8 | 334 | 0.0 | 0.0 | 0.00 | 0.00 | 0.00 | 47 | 1017.0 |
| 20260506141904 | 8 | 334 | 0.0 | 0.0 | 0.00 | 0.00 | 0.00 | 47 | 1017.0 |
| 20260506141402 | 8 | 334 | 1.6 | 1.6 | 0.00 | 0.00 | 0.00 | 43 | 1017.1 |
| 20260506140900 | 8 | 332 | 1.6 | 3.2 | 0.00 | 0.00 | 0.00 | 45 | 1016.9 |
| 20260506140356 | 8 | 334 | 0.0 | 1.6 | 0.00 | 0.00 | 0.00 | 48 | 1017.0 |
| 20260506135854 | 8 | 335 | 1.6 | 3.2 | 0.00 | 0.00 | 0.00 | 48 | 1016.9 |
| 20260506135351 | 8 | 335 | 1.6 | 3.2 | 0.00 | 0.00 | 0.00 | 48 | 1016.8 |
| 20260506134847 | 7 | 334 | 1.6 | 3.2 | 0.00 | 0.00 | 0.00 | 51 | 1016.9 |
| 20260506134343 | 7 | 334 | 0.0 | 0.0 | 0.00 | 0.00 | 0.00 | 52 | 1016.8 |
| 20260506133840 | 7 | 334 | 0.0 | 0.0 | 0.00 | 0.00 | 0.00 | 52 | 1016.6 |
| 20260506133337 | 7 | 334 | 0.0 | 1.6 | 0.00 | 0.00 | 0.00 | 53 | 1016.8 |
| 20260506132834 | 7 | 334 | 1.6 | 3.2 | 0.00 | 0.00 | 0.00 | 52 | 1016.8 |
| 20260506132331 | 7 | 334 | 1.6 | 3.2 | 0.00 | 0.00 | 0.00 | 51 | 1016.5 |
| 20260506131829 | 6 | 334 | 1.6 | 3.2 | 0.00 | 0.00 | 0.00 | 53 | 1016.5 |
| 20260506131325 | 6 | 334 | 0.0 | 0.0 | 0.00 | 0.00 | 0.00 | 57 | 1016.5 |
| 20260506130822 | 6 | 334 | 1.6 | 1.6 | 0.00 | 0.00 | 0.00 | 58 | 1016.5 |
| 20260506130318 | 6 | 334 | 1.6 | 1.6 | 0.00 | 0.00 | 0.00 | 58 | 1016.4 |
| 20260506125816 | 6 | 334 | 0.0 | 1.6 | 0.00 | 0.00 | 0.00 | 57 | 1016.4 |
| 20260506125315 | 5 | 334 | 3.2 | 3.2 | 0.00 | 0.00 | 0.00 | 59 | 1016.2 |
| 20260506124813 | 5 | 334 | 0.0 | 0.0 | 0.00 | 0.00 | 0.00 | 61 | 1016.1 |
| 20260506124309 | 5 | 334 | 0.0 | 0.0 | 0.00 | 0.00 | 0.00 | 60 | 1016.2 |
| 20260506123807 | 5 | 334 | 0.0 | 0.0 | 0.00 | 0.00 | 0.00 | 64 | 1016.1 |
| 20260506123306 | 4 | 334 | 0.0 | 0.0 | 0.00 | 0.00 | 0.00 | 61 | 1015.9 |
| 20260506122802 | 2 | 334 | 0.0 | 0.0 | 0.00 | 0.00 | 0.00 | 74 | 1016.0 |
| 20260506122259 | 2 | 334 | 0.0 | 0.0 | 0.00 | 0.00 | 0.00 | 74 | 1015.7 |
| 20260506121757 | 2 | 334 | 0.0 | 0.0 | 0.00 | 0.00 | 0.00 | 75 | 1015.7 |
| 20260506121254 | 2 | 334 | 0.0 | 0.0 | 0.00 | 0.00 | 0.00 | 75 | 1015.8 |
| 20260506120751 | 2 | 334 | 0.0 | 0.0 | 0.00 | 0.00 | 0.00 | 75 | 1015.5 |
| 20260506120249 | 2 | 334 | 0.0 | 0.0 | 0.00 | 0.00 | 0.00 | 74 | 1015.2 |
| 20260506115746 | 2 | 334 | 0.0 | 0.0 | 0.00 | 0.00 | 0.00 | 75 | 1015.5 |
| 20260506115244 | 2 | 334 | 0.0 | 0.0 | 0.00 | 0.00 | 0.00 | 75 | 1015.4 |
| 20260506114742 | 2 | 334 | 0.0 | 0.0 | 0.00 | 0.00 | 0.00 | 75 | 1015.2 |
| 20260506114239 | 2 | 334 | 0.0 | 0.0 | 0.00 | 0.00 | 0.00 | 76 | 1015.1 |
| 20260506113738 | 2 | 334 | 0.0 | 0.0 | 0.00 | 0.00 | 0.00 | 75 | 1015.1 |
| 20260506113235 | 2 | 334 | 0.0 | 0.0 | 0.00 | 0.00 | 0.00 | 73 | 1015.0 |
| 20260506112731 | 2 | 334 | 0.0 | 0.0 | 0.00 | 0.00 | 0.00 | 73 | 1015.2 |
| 20260506112229 | 2 | 334 | 0.0 | 0.0 | 0.00 | 0.00 | 0.00 | 73 | 1015.2 |
| 20260506111726 | 2 | 334 | 0.0 | 0.0 | 0.00 | 0.00 | 0.00 | 72 | 1015.2 |
| 20260506111224 | 2 | 334 | 0.0 | 0.0 | 0.00 | 0.00 | 0.00 | 71 | 1015.1 |
| 20260506110721 | 3 | 334 | 0.0 | 0.0 | 0.00 | 0.00 | 0.00 | 69 | 1015.0 |
| 20260506110218 | 3 | 334 | 0.0 | 0.0 | 0.00 | 0.00 | 0.00 | 68 | 1014.9 |
| 20260506105715 | 3 | 334 | 0.0 | 0.0 | 0.00 | 0.00 | 0.00 | 68 | 1014.9 |
| 20260506105212 | 3 | 334 | 0.0 | 0.0 | 0.00 | 0.00 | 0.00 | 67 | 1015.1 |
| 20260506104710 | 3 | 334 | 0.0 | 0.0 | 0.00 | 0.00 | 0.00 | 67 | 1015.1 |
| 20260506104207 | 3 | 334 | 0.0 | 0.0 | 0.00 | 0.00 | 0.00 | 66 | 1014.9 |
| 20260506103704 | 4 | 334 | 0.0 | 0.0 | 0.00 | 0.00 | 0.00 | 65 | 1015.1 |
| 20260506103201 | 4 | 334 | 0.0 | 0.0 | 0.00 | 0.00 | 0.00 | 63 | 1015.0 |
| 20260506102659 | 4 | 334 | 0.0 | 0.0 | 0.00 | 0.00 | 0.00 | 63 | 1014.8 |
| 20260506102157 | 4 | 334 | 0.0 | 0.0 | 0.00 | 0.00 | 0.00 | 63 | 1014.8 |
| 20260506101653 | 4 | 334 | 0.0 | 0.0 | 0.00 | 0.00 | 0.00 | 63 | 1015.0 |
| 20260506101150 | 5 | 334 | 0.0 | 0.0 | 0.00 | 0.00 | 0.00 | 60 | 1014.7 |
| 20260506100648 | 5 | 334 | 0.0 | 0.0 | 0.00 | 0.00 | 0.00 | 59 | 1014.7 |
| 20260506100146 | 5 | 334 | 0.0 | 0.0 | 0.00 | 0.00 | 0.00 | 58 | 1014.5 |
| 20260506095644 | 5 | 334 | 0.0 | 0.0 | 0.00 | 0.00 | 0.00 | 58 | 1014.6 |
| 20260506095140 | 5 | 334 | 0.0 | 0.0 | 0.00 | 0.00 | 0.00 | 57 | 1014.5 |
| 20260506094638 | 5 | 334 | 0.0 | 0.0 | 0.00 | 0.00 | 0.00 | 56 | 1014.3 |
| 20260506094136 | 5 | 334 | 0.0 | 0.0 | 0.00 | 0.00 | 0.00 | 55 | 1014.3 |